This is the latest recevied weather packets stored in our database for station/object N9VPV. If no packets are shown the sender has not sent any weather packets the latest 10 day(s).
| Time | Temp. | Humidity | Pressure | Rain* | Wind** | Luminosity | Snow |
|---|---|---|---|---|---|---|---|
| 1777754500 | 15° C | 38% | 1017.8 hPa | 0 mm | - | 202 W/m² | - |
| 1777753597 | 15° C | 34% | 1017.9 hPa | 0 mm | - | 227 W/m² | - |
| 1777752699 | 14.44° C | 34% | 1018.1 hPa | 0 mm | - | 250 W/m² | - |
| 1777751793 | 15° C | 39% | 1018.3 hPa | 0 mm | - | 88 W/m² | - |
| 1777750894 | 15° C | 39% | 1018.5 hPa | 0 mm | - | 183 W/m² | - |
| 1777749994 | 14.44° C | 37% | 1018.6 hPa | 0 mm | - | 352 W/m² | - |
| 1777749092 | 14.44° C | 35% | 1018.7 hPa | 0 mm | - | 392 W/m² | - |
| 1777748187 | 13.89° C | 44% | 1018.9 hPa | 0 mm | - | 403 W/m² | - |
| 1777747287 | 13.89° C | 34% | 1019.1 hPa | 0 mm | - | 123 W/m² | - |
| 1777746387 | 14.44° C | 35% | 1019.1 hPa | 0 mm | - | 243 W/m² | - |
| 1777745486 | 13.33° C | 44% | 1019.2 hPa | 0 mm | - | 434 W/m² | - |
| 1777744577 | 13.33° C | 35% | 1019.3 hPa | 0 mm | - | 118 W/m² | - |
| 1777743677 | 13.89° C | 37% | 1019.3 hPa | 0 mm | - | 431 W/m² | - |
| 1777742777 | 13.89° C | 35% | 1019.5 hPa | 0 mm | - | 439 W/m² | - |
| 1777741872 | 12.78° C | 39% | 1019.6 hPa | 0 mm | - | 383 W/m² | - |
| 1777740973 | 12.22° C | 38% | 1019.7 hPa | 0 mm | - | 69 W/m² | - |
| 1777740065 | 12.78° C | 35% | 1019.8 hPa | 0 mm | - | 371 W/m² | - |
| 1777739164 | 12.22° C | 34% | 1020 hPa | 0 mm | - | 88 W/m² | - |
| 1777738263 | 12.22° C | 40% | 1019.9 hPa | 0 mm | - | 294 W/m² | - |
| 1777737361 | 12.22° C | 43% | 1019.9 hPa | 0 mm | - | 70 W/m² | - |
| 1777736461 | 12.78° C | 48% | 1020 hPa | 0 mm | - | 223 W/m² | - |
| 1777735559 | 11.67° C | 46% | 1020 hPa | 0 mm | - | 156 W/m² | - |
| 1777734659 | 10.56° C | 49% | 1020 hPa | 0 mm | - | 107 W/m² | - |
| 1777733757 | 10° C | 53% | 1019.9 hPa | 0 mm | - | 67 W/m² | - |
| 1777732852 | 9.44° C | 59% | 1019.9 hPa | 0 mm | - | 0 W/m² | - |
* Rain latest hour (hover to see other rain measurements)
** Current wind speed in m/s (hover to see current wind gust speed)